This demonstration page uses our WeatherBlox Daily Observations layout. Learn more.

Left ArrowRight Arrow

Hourly Observations for January 6, 2020

Temp ( °F °C ) Dew Point ( °F °C ) Humidity (%) Winds ( mph kmh ) Pressure ( in mb ) Visibility ( mi km ) Precip ( " mm )
12:53 am 00:53 Mostly Clear 40 4.4 28 -2.2 63 63 W 10 17 30.07 1018 10 16 0.00 0.00
1:53 am 01:53 Clear 38 3.3 28 -2.2 68 68 WNW 9 15 30.08 1019 10 16 0.00 0.00
2:48 am 02:48 Cloudy 37 3 28 -2 70 70 W 13 20 30.13 1020 10 16 0.00 0.00
2:53 am 02:53 Cloudy 38 3.3 28 -2.2 68 68 W 10 17 30.11 1020 10 16 0.00 0.00
3:53 am 03:53 Mostly Cloudy 36 2.2 28 -2.2 73 73 W 10 17 30.14 1021 10 16 0.00 0.00
4:07 am 04:07 Mostly Clear 35 1.7 27 -2.8 72 72 WNW 8 13 30.16 1021 10 16 0.00 0.00
4:53 am 04:53 Mostly Clear 33 0.6 27 -2.8 78 78 W 5 7 30.14 1021 10 16 0.00 0.00
5:25 am 05:25 Mostly Cloudy 34 1.1 27 -2.8 76 76 WNW 8 13 30.18 1022 10 16 0.00 0.00
5:53 am 05:53 Mostly Cloudy 33 0.6 26 -3.3 75 75 W 7 11 30.17 1022 10 16 0.00 0.00
6:53 am 06:53 Partly Cloudy 31 -0.6 25 -3.9 79 79 W 5 7 30.19 1023 10 16 0.00 0.00
7:53 am 07:53 Clear 26 -3.3 22 -5.6 84 84 WNW 3 6 30.22 1023 10 16 0.00 0.00
8:53 am 08:53 Sunny 28 -2.2 24 -4.4 85 85 Calm 30.25 1025 10 16 0.00 0.00
9:53 am 09:53 Sunny 34 1.1 26 -3.3 73 73 WSW 6 9 30.27 1025 10 16 0.00 0.00
10:53 am 10:53 Sunny 37 2.8 26 -3.3 65 65 SW 8 13 30.27 1025 10 16 0.00 0.00
11:53 am 11:53 Sunny 39 3.9 26 -3.3 60 60 W 8 13 30.26 1025 10 16 0.00 0.00
12:53 pm 12:53 Sunny 40 4.4 24 -4.4 53 53 SSW 5 7 30.23 1024 10 16 0.00 0.00
1:53 pm 13:53 Sunny 44 6.7 22 -5.6 41 41 VRB 5 7 30.19 1023 10 16 0.00 0.00
2:53 pm 14:53 Sunny 45 7.2 17 -8.3 33 33 Calm 30.18 1022 10 16 0.00 0.00
3:53 pm 15:53 Sunny 46 7.8 15 -9.4 29 29 WSW 3 6 30.17 1022 10 16 0.00 0.00
4:53 pm 16:53 Sunny 45 7.2 14 -10 29 29 Calm 30.17 1022 10 16 0.00 0.00
5:53 pm 17:53 Clear 35 1.7 20 -6.7 54 54 Calm 30.18 1022 10 16 0.00 0.00
6:53 pm 18:53 Clear 30 -1.1 22 -5.6 72 72 Calm 30.19 1022 10 16 0.00 0.00
7:53 pm 19:53 Clear 28 -2.2 22 -5.6 78 78 Calm 30.19 1023 10 16 0.00 0.00
8:53 pm 20:53 Clear 28 -2.2 23 -5 81 81 Calm 30.18 1022 10 16 0.00 0.00
9:53 pm 21:53 Clear 28 -2.2 24 -4.4 85 85 Calm 30.17 1022 10 16 0.00 0.00
10:53 pm 22:53 Clear 27 -2.8 24 -4.4 89 89 Calm 30.15 1021 10 16 0.00 0.00
11:53 pm 23:53 Clear 27 -2.8 24 -4.4 89 89 Calm 30.13 1020 10 16 0.00 0.00

Powered by AerisWeather